Location: Larrial
(48.2758°N, 4.5331°W)
Time: 05:55:34
(UTC+00:00)

Cosmos 2341 Rocket - Visible Passes

Search period start: 11 August 2020 00:00
Search period end: 21 August 2020 00:00
Orbit: 969 x 1004 km, 82.9° (Epoch: 10 August)

Date Brightness Start Highest point End Pass type
(mag) Time Alt. Az. Time Alt. Az. Time Alt. Az.
11 Aug 7.4 04:23:30 10° NNE 04:27:02 15° ENE 04:30:33 10° E visible
11 Aug 7.1 21:33:32 10° W 21:36:10 13° NW 21:38:50 10° NNW visible
12 Aug 5.8 20:12:21 10° SW 20:18:05 37° WNW 20:23:53 10° N visible
13 Aug 6.8 20:42:32 10° WSW 20:47:14 22° WNW 20:51:59 10° NNW visible
14 Aug 7.2 04:03:54 10° NNE 04:07:31 15° ENE 04:11:08 10° E visible
14 Aug 7.3 21:14:05 10° W 21:16:39 12° NW 21:19:14 10° NNW visible
15 Aug 6.7 04:31:35 10° N 04:36:51 26° ENE 04:42:05 10° ESE visible
16 Aug 6.9 20:23:03 10° WSW 20:27:43 21° WNW 20:32:26 10° NNW visible
17 Aug 7.1 03:44:19 10° NNE 03:48:01 16° ENE 03:51:42 10° E visible
17 Aug 7.4 20:54:39 10° WNW 20:57:09 12° NW 20:59:38 10° NNW visible
18 Aug 6.5 04:12:02 10° N 04:17:21 27° ENE 04:22:37 10° ESE visible
19 Aug 5.4 04:40:17 10° N 04:46:25 45° ENE 04:52:30 10° SE visible
19 Aug 7.0 20:03:33 10° WSW 20:08:12 21° WNW 20:12:53 10° NNW visible
20 Aug 7.0 03:24:44 10° NNE 03:28:30 16° ENE 03:32:16 10° E visible
20 Aug 7.5 20:35:14 10° WNW 20:37:38 12° NW 20:40:03 10° NNW visible
